Regional Weather Roundup
Issued by NWS

Home | Current Version | Previous Version | Text Only | Print | Product List | Glossary On
Versions: 1 2 3 4 5 6 7 8 9 10 11 12 13 14 15 16 17 18 19 20 21 22 23 24 25 26 27 28 29 30 31 32 33 34 35 36 37 38 39 40 41 42 43 44 45 46 47 48 49 50
000
ASUS44 KFWD 022001
RWRTX
NORTH TEXAS HOURLY WEATHER ROUNDUP
NATIONAL WEATHER SERVICE FORT WORTH TX
300 PM CDT MON MAY 02 2016

NOTE: "FAIR" INDICATES FEW OR NO CLOUDS BELOW 12,000 FEET WITH NO
SIGNIFICANT WEATHER AND/OR OBSTRUCTIONS TO VISIBILITY.

TXZ118-119-022100-
DALLAS/FORT WORTH METROPLEX

CITY           SKY/WX    TMP DP  RH WIND       PRES   REMARKS
DFW AIRPORT    CLOUDY    65  48  54 N16       30.11F
DALLAS LOVE    PTSUNNY   65  49  56 N15G23    30.10F
FTW MEACHAM    CLOUDY    64  47  53 NW14G24   30.11F
DAL-EXECUTIVE  LGT RAIN  61  50  67 NW14      30.11R
FTW-ALLIANCE   CLOUDY    63  47  55 N15G24    30.11F
FTW-NAS-JRB    CLOUDY    63  48  58 N15       30.12F
FTW-SPINKS     MOSUNNY   63  48  59 NW12G22   30.14F
ARLINGTON      CLOUDY    64  48  56 NW17G25   30.11F
GRAND PRAIRIE  MOSUNNY   61  46  59 N16       30.12F
MESQUITE       PTSUNNY   63  50  63 NW13      30.11F
LANCASTER      CLOUDY    62  49  62 N15G21    30.10F
$$

TXZ091>094-102>105-117-120-121-131>134-022100-
NORTH CENTRAL TEXAS

CITY           SKY/WX    TMP DP  RH WIND       PRES   REMARKS
DECATUR        CLOUDY    61  45  57 N12G17    30.13F
DENTON         CLOUDY    63  49  60 N14       30.12F
MCKINNEY       CLOUDY    63  49  60 N15       30.11S
ROCKWALL       CLOUDY    62  51  67 NW9G17    30.09F
TERRELL        CLOUDY    64  50  60 NW10      30.10S
WAXAHACHIE     PTSUNNY   64  51  64 N16       30.13R
GRANBURY       CLOUDY    61  48  62 NW8       30.17R
$$

TXZ083>090-098>101-113>116-127>130-139>142-154-155-022100-
WESTERN NORTH TEXAS

CITY           SKY/WX    TMP DP  RH WIND       PRES   REMARKS
WICHITA FALLS  PTSUNNY   66  44  45 N13G25    30.15F
WF-KICKAPOO    PTSUNNY   66  43  43 N14G22    30.16F
ABILENE        MOSUNNY   65  46  50 NW13G21   30.16F
MINERAL WELLS  PTSUNNY   65  48  54 NW13      30.12F
STEPHENVILLE   PTSUNNY   57  48  72 N9G17     30.16F
COMANCHE       CLOUDY    56  49  77 N15       30.16S
COLEMAN        CLOUDY    61  48  62 NW12      30.17F
$$

TXZ143>147-156>162-174-175-022100-
CENTRAL TEXAS

CITY           SKY/WX    TMP DP  RH WIND       PRES   REMARKS
WACO           CLOUDY    63  49  60 N13       30.13R
WACO-TSTC      PTSUNNY   64  50  59 N12G18    30.12S
WACO-MCGREGOR  CLOUDY    63  52  67 N14       30.12F
HILLSBORO      LGT RAIN  61  51  70 NW12      30.12F
CORSICANA      CLOUDY    66  52  60 N8        30.11F
MEXIA          CLOUDY    62  51  67 N12G17    30.09S
HEARNE         CLOUDY    66  55  68 NW14G21   30.08S
TEMPLE         CLOUDY    62  52  69 N14       30.12F
KILLEEN        NOT AVBL
KILLEEN-SKYLRK CLOUDY    61  50  67 NW14      30.12F
HAMILTON       CLOUDY    58  49  70 N12       30.15F
$$

TXZ095>097-106>112-122>126-135>138-148>153-164>167-022100-
EAST TEXAS

CITY           SKY/WX    TMP DP  RH WIND       PRES   REMARKS
PARIS          CLOUDY    63  46  55 N10       30.08F
GILMER         CLOUDY    64  54  70 NW8       30.05F
MINEOLA        CLOUDY    63  54  72 N9        30.10F
TYLER          PTSUNNY   68  53  58 N13       30.07F
LONGVIEW       CLOUDY    65  57  75 NW9       30.05F
PALESTINE      CLOUDY    67  56  69 N9        30.08F
JACKSONVILLE   CLOUDY    65  58  76 N5        30.08F
NACOGDOCHES    CLOUDY    70  57  64 N12       30.03F
LUFKIN         PTSUNNY   72  59  63 NW8       30.02F
$$

SUPPLEMENTAL OBSERVATIONS (CENTRAL)

CITY           SKY/WX    TMP DP  RH WIND       PRES   REMARKS
$$

SUPPLEMENTAL OBSERVATIONS (WEST)

CITY           SKY/WX    TMP DP  RH WIND       PRES   REMARKS
$$

SUPPLEMENTAL OBSERVATIONS (EAST)

CITY           SKY/WX    TMP DP  RH WIND       PRES   REMARKS
$$

SUPPLEMENTAL OBSERVATIONS ARE A COLLECTION OF AUTOMATED INSTRUMENTS
THAT ARE MAINTAINED BY A VARIETY OF FEDERAL AND STATE AGENCIES.
CERTAIN ELEMENTS...SUCH AS HUMIDITY VALUES AND SUSTAINED WIND
SPEEDS...MAY BE APPROXIMATED.





USA.gov is the U.S. government's official web portal to all federal, state and local government web resources and services.